When you browse on this site, cookies collect data to enhance your experience and personalize the content and advertising you see.
Visit our Privacy Policy to learn more. By continuing to use the site, you agree to this use of cookies and data.
  • In Belgien
  • Länderverzeichnis
  • Für 7 Tage
  • Wassertemperatur
  • Wetterkarte
  • Widgets
  • user-avatar
    Anmelden

    Stündliche Wetter Maloe Zagore

    Heute, 3 Juni, Mittwoch

    Zeit Temperatur Niederschläge Wind Luftdruck Luftfeuchtigkeit
    00:00 +6°C° 0 mm 2 m/S 747 mmHg 86%
    01:00 +6°C° 0 mm 2 m/S 747 mmHg 87%
    02:00 +7°C° 0 mm 2 m/S 746 mmHg 87%
    03:00 +8°C° 0 mm 3 m/S 746 mmHg 84%
    04:00 +9°C° 0 mm 3 m/S 746 mmHg 82%
    05:00 +9°C° 0 mm 3 m/S 745 mmHg 80%
    06:00 +10°C° 0 mm 3 m/S 745 mmHg 80%
    07:00 +11°C° 0 mm 3 m/S 746 mmHg 80%
    08:00 +11°C° 0 mm 3 m/S 746 mmHg 80%
    09:00 +12°C° 0 mm 3 m/S 745 mmHg 80%
    10:00 +12°C° 0 mm 4 m/S 745 mmHg 79%
    11:00 +13°C° 0 mm 4 m/S 745 mmHg 79%
    12:00 +13°C° 0 mm 4 m/S 745 mmHg 80%
    13:00 +13°C° 0 mm 4 m/S 745 mmHg 80%
    14:00 +13°C° 0 mm 3 m/S 745 mmHg 80%
    15:00 +13°C° 0.1 mm 3 m/S 744 mmHg 82%
    16:00 +13°C° 0.1 mm 3 m/S 744 mmHg 84%
    17:00 +14°C° 0.1 mm 2 m/S 743 mmHg 86%
    18:00 +14°C° 0.2 mm 2 m/S 743 mmHg 87%
    19:00 +14°C° 0.2 mm 2 m/S 743 mmHg 88%
    20:00 +13°C° 0.2 mm 3 m/S 743 mmHg 89%
    21:00 +12°C° 0.1 mm 3 m/S 742 mmHg 89%
    22:00 +12°C° 0.1 mm 3 m/S 742 mmHg 90%
    23:00 +12°C° 0.1 mm 3 m/S 741 mmHg 90%

    Morgen, 4 Juni, Donnerstag

    Zeit Temperatur Niederschläge Wind Luftdruck Luftfeuchtigkeit
    00:00 +12°C° 0.1 mm 3 m/S 741 mmHg 90%
    01:00 +12°C° 0.1 mm 3 m/S 740 mmHg 91%
    02:00 +11°C° 0.1 mm 4 m/S 740 mmHg 91%
    03:00 +11°C° 2.7 mm 4 m/S 739 mmHg 93%
    04:00 +11°C° 2.7 mm 4 m/S 738 mmHg 95%
    05:00 +10°C° 2.7 mm 5 m/S 737 mmHg 97%
    06:00 +11°C° 2.7 mm 4 m/S 736 mmHg 97%
    07:00 +11°C° 2.7 mm 4 m/S 735 mmHg 97%
    08:00 +11°C° 2.7 mm 4 m/S 735 mmHg 97%
    09:00 +12°C° 0.8 mm 4 m/S 735 mmHg 97%
    10:00 +13°C° 0.8 mm 4 m/S 734 mmHg 97%
    11:00 +13°C° 0.8 mm 3 m/S 734 mmHg 97%
    12:00 +14°C° 0.3 mm 4 m/S 734 mmHg 93%
    13:00 +15°C° 0.3 mm 4 m/S 735 mmHg 90%
    14:00 +15°C° 0.3 mm 4 m/S 735 mmHg 86%
    15:00 +17°C° 0.2 mm 4 m/S 735 mmHg 84%
    16:00 +17°C° 0.2 mm 3 m/S 735 mmHg 82%
    17:00 +18°C° 0.2 mm 3 m/S 735 mmHg 80%
    18:00 +17°C° 0.8 mm 3 m/S 736 mmHg 84%
    19:00 +16°C° 0.8 mm 3 m/S 736 mmHg 89%
    20:00 +15°C° 0.8 mm 2 m/S 736 mmHg 94%
    21:00 +14°C° 0 mm 2 m/S 736 mmHg 95%
    22:00 +13°C° 0 mm 2 m/S 736 mmHg 95%
    23:00 +13°C° 0 mm 1 m/S 737 mmHg 96%

    übermorgen, 5 Juni, Freitag

    Zeit Temperatur Niederschläge Wind Luftdruck Luftfeuchtigkeit
    00:00 +12°C° 0.1 mm 1 m/S 737 mmHg 97%
    01:00 +12°C° 0.1 mm 1 m/S 737 mmHg 97%
    02:00 +12°C° 0.1 mm 1 m/S 738 mmHg 97%
    03:00 +12°C° 0 mm 2 m/S 738 mmHg 97%
    04:00 +12°C° 0 mm 2 m/S 738 mmHg 96%
    05:00 +12°C° 0 mm 2 m/S 738 mmHg 95%
    06:00 +14°C° 0 mm 2 m/S 739 mmHg 89%
    07:00 +14°C° 0 mm 3 m/S 739 mmHg 82%
    08:00 +17°C° 0 mm 3 m/S 739 mmHg 76%
    09:00 +18°C° 0 mm 3 m/S 739 mmHg 68%
    10:00 +19°C° 0 mm 3 m/S 739 mmHg 60%
    11:00 +21°C° 0 mm 3 m/S 739 mmHg 52%
    12:00 +20°C° 0.7 mm 4 m/S 739 mmHg 61%
    13:00 +19°C° 0.7 mm 4 m/S 739 mmHg 71%
    14:00 +19°C° 0.7 mm 4 m/S 739 mmHg 80%
    15:00 +18°C° 0.5 mm 4 m/S 739 mmHg 81%
    16:00 +18°C° 0.5 mm 4 m/S 740 mmHg 83%
    17:00 +18°C° 0.5 mm 3 m/S 740 mmHg 85%
    18:00 +16°C° 0.2 mm 3 m/S 740 mmHg 88%
    19:00 +14°C° 0.2 mm 3 m/S 740 mmHg 91%
    20:00 +14°C° 0.2 mm 2 m/S 740 mmHg 95%
    21:00 +13°C° 0 mm 2 m/S 740 mmHg 95%
    22:00 +12°C° 0 mm 2 m/S 740 mmHg 96%
    23:00 +12°C° 0 mm 2 m/S 740 mmHg 97%

    6 Juni, Samstag

    Zeit Temperatur Niederschläge Wind Luftdruck Luftfeuchtigkeit
    00:00 +10°C° 0 mm 2 m/S 740 mmHg 97%
    01:00 +10°C° 0 mm 2 m/S 741 mmHg 97%
    02:00 +9°C° 0 mm 2 m/S 741 mmHg 97%
    03:00 +10°C° 0 mm 2 m/S 741 mmHg 97%
    04:00 +10°C° 0 mm 2 m/S 741 mmHg 97%
    05:00 +12°C° 0 mm 2 m/S 741 mmHg 97%
    06:00 +13°C° 0 mm 2 m/S 741 mmHg 92%
    07:00 +14°C° 0 mm 2 m/S 741 mmHg 88%
    08:00 +16°C° 0 mm 3 m/S 741 mmHg 84%
    09:00 +18°C° 0 mm 3 m/S 741 mmHg 74%
    10:00 +19°C° 0 mm 3 m/S 741 mmHg 64%
    11:00 +21°C° 0 mm 4 m/S 741 mmHg 54%
    12:00 +22°C° 0 mm 4 m/S 741 mmHg 53%
    13:00 +23°C° 0 mm 4 m/S 741 mmHg 52%
    14:00 +23°C° 0 mm 4 m/S 740 mmHg 51%
    15:00 +22°C° 0.7 mm 4 m/S 740 mmHg 65%
    16:00 +20°C° 0.7 mm 4 m/S 740 mmHg 78%
    17:00 +19°C° 0.7 mm 3 m/S 740 mmHg 91%
    18:00 +18°C° 0.7 mm 3 m/S 740 mmHg 93%
    19:00 +18°C° 0.7 mm 3 m/S 741 mmHg 95%
    20:00 +17°C° 0.7 mm 2 m/S 741 mmHg 96%
    21:00 +17°C° 0 mm 2 m/S 741 mmHg 97%
    22:00 +16°C° 0 mm 2 m/S 742 mmHg 98%
    23:00 +16°C° 0 mm 2 m/S 742 mmHg 98%

    7 Juni, Sonntag

    Zeit Temperatur Niederschläge Wind Luftdruck Luftfeuchtigkeit
    00:00 +15°C° 0 mm 2 m/S 743 mmHg 98%
    01:00 +14°C° 0 mm 1 m/S 743 mmHg 98%
    02:00 +14°C° 0 mm 1 m/S 743 mmHg 98%
    03:00 +14°C° 0 mm 1 m/S 744 mmHg 98%
    04:00 +14°C° 0 mm 1 m/S 744 mmHg 97%
    05:00 +14°C° 0 mm 1 m/S 745 mmHg 96%
    06:00 +16°C° 0 mm 1 m/S 745 mmHg 87%
    07:00 +19°C° 0 mm 1 m/S 746 mmHg 78%
    08:00 +21°C° 0 mm 1 m/S 746 mmHg 68%
    09:00 +22°C° 0 mm 1 m/S 747 mmHg 62%
    10:00 +23°C° 0 mm 2 m/S 747 mmHg 55%
    11:00 +25°C° 0 mm 2 m/S 747 mmHg 48%
    12:00 +25°C° 0 mm 2 m/S 747 mmHg 48%
    13:00 +26°C° 0 mm 3 m/S 747 mmHg 47%
    14:00 +26°C° 0 mm 3 m/S 747 mmHg 47%
    15:00 +26°C° 0 mm 2 m/S 747 mmHg 49%
    16:00 +26°C° 0 mm 2 m/S 747 mmHg 52%
    17:00 +26°C° 0 mm 2 m/S 747 mmHg 55%
    18:00 +24°C° 0 mm 1 m/S 748 mmHg 63%
    19:00 +22°C° 0 mm 1 m/S 748 mmHg 72%
    20:00 +20°C° 0 mm 1 m/S 748 mmHg 80%
    21:00 +19°C° 0 mm 1 m/S 748 mmHg 84%
    22:00 +18°C° 0 mm 1 m/S 748 mmHg 87%
    23:00 +16°C° 0 mm 1 m/S 749 mmHg 91%

    8 Juni, Montag

    Zeit Temperatur Niederschläge Wind Luftdruck Luftfeuchtigkeit
    00:00 +16°C° 0 mm 1 m/S 749 mmHg 92%
    01:00 +15°C° 0 mm 1 m/S 749 mmHg 93%
    02:00 +15°C° 0 mm 1 m/S 749 mmHg 94%
    03:00 +16°C° 0 mm 1 m/S 749 mmHg 91%
    04:00 +16°C° 0 mm 1 m/S 749 mmHg 89%
    05:00 +18°C° 0 mm 1 m/S 749 mmHg 86%
    06:00 +18°C° 0 mm 2 m/S 749 mmHg 80%
    07:00 +20°C° 0 mm 2 m/S 749 mmHg 73%
    08:00 +21°C° 0 mm 3 m/S 749 mmHg 66%
    09:00 +24°C° 0 mm 3 m/S 749 mmHg 62%
    10:00 +25°C° 0 mm 4 m/S 748 mmHg 59%
    11:00 +27°C° 0 mm 4 m/S 748 mmHg 55%
    12:00 +26°C° 0.7 mm 4 m/S 748 mmHg 63%
    13:00 +26°C° 0.7 mm 3 m/S 748 mmHg 71%
    14:00 +26°C° 0.7 mm 3 m/S 748 mmHg 80%
    15:00 +25°C° 0.8 mm 3 m/S 748 mmHg 81%
    16:00 +25°C° 0.8 mm 2 m/S 747 mmHg 81%
    17:00 +25°C° 0.8 mm 2 m/S 747 mmHg 82%
    18:00 +24°C° 0.2 mm 2 m/S 747 mmHg 85%
    19:00 +23°C° 0.2 mm 2 m/S 747 mmHg 89%
    20:00 +21°C° 0.2 mm 2 m/S 747 mmHg 92%
    21:00 +20°C° 0 mm 2 m/S 747 mmHg 93%
    22:00 +19°C° 0 mm 2 m/S 748 mmHg 94%
    23:00 +18°C° 0 mm 2 m/S 748 mmHg 95%
    Mehr zeigen